Portada
METAR-TAF:

METAR-TAF

Aeroports :

Brunswick County Airport

Southport, Carolina del Nord, Estats Units d'Amèrica

latitud: 33-55-45N, longitud: 078-04-29W, altitud: 8 m

Observació

L'informe es va fer fa 14 minuts, a les 00:55 UTC
Vent 4 kt del Sud
Temperatura 28°C
Humitat 79%
Pressió 1016 hPa
Visibilitat: 16.1 km
Cel clar

METAR: KSUT 110055Z AUTO 18004KT 10SM CLR 28/24 A3001 RMK AO2 T02800235

Hora: 21:09 (01:09 UTC)


TAF: manca

Observacions i pronòstics meteorològics de més de 4000 aeroports (METAR i TAF).

Les estacions disponibles són els punts grocs i vermells al mapa.

Posi el ratolí al punt desitjat per veure el nom de l'estació.

Feu clic per veure les observacions i els pronòstics meteorològics.

Per canviar el mapa: feu clic els botons verds amb una creu de color negre per apropar; al botó verd amb un guió per allunyar la imatge; o en les fletxes verdes per a mapes adjacents.


METAR-TAF: